Brainerd, MN

6:16 PM CDT on July 20, 2017 (GMT -0500)
Brainerd-Crow Wing County Regional

Weather History for KBRD - January, 2015

Change the Weather History Date:

Thursday, January 8, 2015

  Actual Average Record
Temperature  
Mean Temperature 2 °F -  
Max Temperature 8 °F 15 °F 51 °F (2003)
Min Temperature -4 °F -12 °F -39 °F (1982)
Degree Days  
Heating Degree Days 63    
Moisture  
Dew Point -4 °F    
Average Humidity 73    
Maximum Humidity 88    
Minimum Humidity 60    
Precipitation  
Precipitation 0.01 in - - ()
Sea Level Pressure  
Sea Level Pressure 29.85 in    
Wind  
Wind Speed 13 mph (West)    
Max Wind Speed 28 mph    
Max Gust Speed 38 mph    
Visibility 4 miles    
Events Fog , Snow    
Averages and records for this station are not official NWS values.
T = Trace of Precipitation, MM = Missing Value Source: NWS Daily Summary

Daily Weather History Graph

Daily Weather History Graph

Search for Another Location

Airport or City:

Trip Planner

Search our weather history database for the weather conditions in past years. The results will help you decide how hot, cold, wet, or windy it might be!

Date:

Astronomy

Jan. 08, 2015 Rise Set
Actual Time 7:59 AM CST 4:47 PM CST
Civil Twilight 7:24 AM CST 5:22 PM CST
Nautical Twilight 6:46 AM CST 5:59 PM CST
Astronomical Twilight 6:10 AM CST 6:36 PM CST
Moon 8:41 PM CST (1/8) 9:32 AM CST (1/8)
Length of Visible Light 9h 57m
Length of Day
8h 48m
Waning Gibbous, 89% of the Moon is Illuminated
Jan 8
Waning Gibbous
Jan 13
Last Quarter
Jan 20
New
Jan 26
First Quarter
Feb 3
Full

Hourly Weather History & Observations

Time (CST) Temp. Windchill Dew Point Humidity Pressure Visibility Wind Dir Wind Speed Gust Speed Precip Events Conditions
12:53 AM -4.0 °F -22.1 °F -11.0 °F 72% 30.37 in 10.0 mi SSW 11.5 mph - N/A   Clear
1:53 AM -2.9 °F -19.8 °F -11.0 °F 68% 30.29 in 10.0 mi SSW 10.4 mph - N/A   Partly Cloudy
2:53 AM -0.9 °F -17.4 °F -9.9 °F 66% 30.23 in 10.0 mi South 10.4 mph - N/A   Overcast
3:53 AM -0.0 °F -15.3 °F -9.0 °F 66% 30.13 in 10.0 mi South 9.2 mph - N/A   Overcast
4:53 AM 1.0 °F -16.6 °F -9.0 °F 63% 30.02 in 10.0 mi South 12.7 mph - N/A   Overcast
5:53 AM 1.0 °F -18.0 °F -9.0 °F 63% 29.95 in 10.0 mi South 15.0 mph 21.9 mph N/A   Overcast
6:53 AM 1.0 °F -18.7 °F -8.0 °F 66% 29.90 in 9.0 mi SSW 16.1 mph - N/A   Overcast
7:43 AM 1.0 °F -18.0 °F -6.0 °F 72% 29.75 in 1.8 mi South 15.0 mph - 0.00 in Snow Light Snow
7:53 AM 1.0 °F -15.8 °F -6.0 °F 72% 29.85 in 2.0 mi South 11.5 mph - 0.00 in Snow Light Snow
8:01 AM 1.0 °F -14.9 °F -5.1 °F 75% 29.74 in 2.0 mi South 10.4 mph - 0.00 in Snow Light Snow
8:09 AM 1.0 °F -15.8 °F -5.1 °F 75% 29.73 in 1.5 mi South 11.5 mph - 0.00 in Snow Light Snow
8:49 AM 1.4 °F -13.5 °F -2.2 °F 85% 29.71 in 1.0 mi South 9.2 mph - 0.00 in Snow Light Snow
8:53 AM 1.9 °F -13.8 °F -2.9 °F 80% 29.81 in 1.0 mi South 10.4 mph - 0.00 in Snow Light Snow
9:00 AM 1.9 °F -11.8 °F -2.9 °F 80% 29.70 in 0.8 mi South 8.1 mph - 0.00 in Snow Light Snow
9:20 AM 1.9 °F -11.8 °F -2.0 °F 83% 29.68 in 1.2 mi South 8.1 mph - 0.00 in Snow Light Snow
9:27 AM 1.9 °F -12.9 °F -2.0 °F 83% 29.68 in 1.5 mi South 9.2 mph - 0.00 in Snow Light Snow
9:35 AM 1.9 °F -11.8 °F -2.0 °F 83% 29.68 in 1.0 mi South 8.1 mph - 0.00 in Snow Light Snow
9:46 AM 3.0 °F -10.5 °F -2.0 °F 80% 29.68 in 0.8 mi South 8.1 mph - 0.00 in Snow Light Snow
9:53 AM 3.0 °F -9.3 °F -0.9 °F 84% 29.78 in 1.8 mi South 6.9 mph - 0.00 in Snow Light Snow
10:07 AM 3.0 °F -8.0 °F -0.9 °F 84% 29.67 in 0.8 mi South 5.8 mph - 0.00 in Snow Light Snow
10:41 AM 3.9 °F -8.2 °F -0.0 °F 84% 29.66 in 1.5 mi SSW 6.9 mph - 0.01 in Snow Light Snow
10:53 AM 3.9 °F -6.9 °F -0.0 °F 84% 29.76 in 1.0 mi SW 5.8 mph - 0.01 in Snow Light Snow
11:02 AM 3.9 °F -3.4 °F -0.0 °F 84% 29.66 in 0.5 mi WSW 3.5 mph - 0.00 in Fog , Snow Snow
11:25 AM 3.9 °F -5.3 °F 1.0 °F 88% 29.65 in 1.0 mi WSW 4.6 mph - 0.00 in Snow Light Snow
11:45 AM 5.0 °F -2.1 °F 1.0 °F 84% 29.64 in 1.8 mi Variable 3.5 mph - 0.00 in Snow Light Snow
11:53 AM 5.0 °F -2.1 °F 1.0 °F 84% 29.75 in 1.0 mi West 3.5 mph - 0.00 in Snow Light Snow
12:01 PM 6.1 °F -0.9 °F 1.9 °F 83% 29.64 in 0.5 mi WNW 3.5 mph - 0.00 in Fog , Snow Snow
12:16 PM 7.0 °F -3.3 °F 1.9 °F 80% 29.65 in 1.0 mi WNW 5.8 mph - 0.00 in Snow Light Snow
12:50 PM 6.8 °F -7.8 °F 1.4 °F 79% 29.66 in 1.5 mi NNW 10.4 mph - 0.00 in Snow Light Snow
12:53 PM 7.0 °F -7.5 °F 1.9 °F 80% 29.76 in 1.8 mi NW 10.4 mph - 0.00 in Snow Light Snow
1:03 PM 7.0 °F -9.8 °F 1.9 °F 80% 29.66 in 1.2 mi NNW 13.8 mph - 0.00 in Snow Light Snow
1:09 PM 8.1 °F -11.2 °F 1.0 °F 73% 29.66 in 2.0 mi NNW 19.6 mph 25.3 mph 0.00 in Snow Light Snow
1:19 PM 8.1 °F -9.0 °F 1.0 °F 73% 29.66 in 5.0 mi NNW 15.0 mph - 0.00 in Snow Blowing Snow
1:40 PM 8.1 °F -11.2 °F -0.0 °F 70% 29.68 in 2.0 mi NNW 19.6 mph 25.3 mph 0.00 in Snow Light Snow
1:53 PM 8.1 °F -11.7 °F -0.0 °F 70% 29.80 in 1.8 mi NNW 20.7 mph - 0.00 in Snow Light Snow
2:01 PM 8.1 °F -12.6 °F -0.9 °F 67% 29.71 in 2.0 mi NW 23.0 mph 28.8 mph 0.00 in Snow Light Snow
2:12 PM 8.1 °F -10.7 °F -0.9 °F 67% 29.72 in 3.0 mi NNW 18.4 mph 26.5 mph 0.00 in Snow Light Snow
2:51 PM 8.6 °F -13.4 °F -0.4 °F 67% 29.75 in 3.0 mi NNW 27.6 mph 35.7 mph 0.00 in Snow Blowing Snow
2:53 PM 8.1 °F -13.0 °F -0.9 °F 67% 29.84 in 3.0 mi NW 24.2 mph 35.7 mph 0.00 in Snow Blowing Snow
3:19 PM 8.1 °F -11.2 °F -2.0 °F 64% 29.77 in 6.0 mi NNW 19.6 mph - N/A Snow Blowing Snow
3:53 PM 8.1 °F -10.2 °F -2.0 °F 64% 29.90 in 8.0 mi NNW 17.3 mph 31.1 mph N/A   Clear
4:36 PM 7.0 °F -11.0 °F -2.0 °F 67% 29.84 in 8.0 mi NW 16.1 mph - N/A   Mostly Cloudy
4:53 PM 6.1 °F -13.3 °F -2.0 °F 69% 29.95 in 10.0 mi NW 18.4 mph 25.3 mph N/A   Mostly Cloudy
5:07 PM 6.1 °F -13.8 °F -2.9 °F 67% 29.86 in 9.0 mi NW 19.6 mph 28.8 mph N/A   Mostly Cloudy
5:53 PM 5.0 °F -17.1 °F -4.0 °F 66% 30.01 in 6.0 mi NW 24.2 mph 32.2 mph 0.00 in Snow Blowing Snow
6:28 PM 3.9 °F -17.6 °F -5.1 °F 66% 29.95 in 3.0 mi NNW 21.9 mph 29.9 mph 0.00 in Snow Light Snow
6:44 PM 3.0 °F -17.8 °F -7.1 °F 63% 29.97 in 4.0 mi NW 19.6 mph 36.8 mph 0.00 in Snow Blowing Snow
6:53 PM 3.0 °F -20.6 °F -7.1 °F 63% 30.07 in 6.0 mi NNW 26.5 mph 38.0 mph 0.00 in Snow Blowing Snow
7:53 PM 1.9 °F -19.8 °F -8.0 °F 63% 30.11 in 9.0 mi NW 20.7 mph 26.5 mph N/A   Overcast
8:21 PM 1.0 °F -21.9 °F -9.0 °F 63% 30.01 in 7.0 mi NNW 23.0 mph 33.4 mph N/A   Mostly Cloudy
8:53 PM 1.0 °F -19.3 °F -9.0 °F 63% 30.13 in 9.0 mi NW 17.3 mph 31.1 mph N/A   Overcast
9:24 PM -0.0 °F -21.3 °F -9.0 °F 66% 30.04 in 10.0 mi NW 18.4 mph 27.6 mph N/A   Scattered Clouds
9:53 PM -0.0 °F -19.4 °F -9.9 °F 63% 30.15 in 10.0 mi NW 15.0 mph - N/A   Clear
10:53 PM -0.9 °F -20.6 °F -11.9 °F 60% 30.18 in 10.0 mi NW 15.0 mph 31.1 mph N/A   Clear
11:53 PM -2.0 °F -25.0 °F -13.0 °F 60% 30.21 in 9.0 mi NW 20.7 mph 31.1 mph N/A   Mostly Cloudy